Home > Weather > Split > Past weeks

Flag for Croatia Past Weather in Split, Croatia — Yesterday and Last 2 Weeks

Now
87 °F

Partly sunny.


Feels Like: 88 °F
Forecast: 74 / 91 °F
Wind: 1 mph from North

Location: Split/Marjan

Current Time: Jun 25, 2016 at 9:35:25 PM

Latest Report: Jun 25, 2016 at 8:00 PM


Visibility: 19 mi

Pressure: 29.81 "Hg

Humidity: 48%

Dew Point: 65 °F

Location of SplitLocation

Past Weather in Split — Graph

°F

Split Temperature Yesterday

Maximum temperature yesterday: 96 °F (at 2:00 PM)
Minimum temperature yesterday: 83 °F (at 6:00 AM)
Average temperature yesterday: 89 °F

High & Low Weather Summary for the Past Weeks

 TemperatureHumidityPressure
High97 °F (Jun 23, 2:00 PM)85% (Jun 14, 2:00 AM)30.14 "Hg (Jun 14, 2:00 AM)
Low63 °F (Jun 20, 2:00 AM)29% (Jun 18, 5:00 PM)29.57 "Hg (Jun 13, 3:00 PM)
Average77 °F58%29.88 "Hg
* Reported Jun 10 8:00 PM — Jun 25 8:00 PM, Split, Weather by CustomWeather, © 2016

Note: Actual official high and low records may vary slightly from our data, if they occured in-between our weather recording intervals... More about our weather records

Advertising

Split Weather History for the Previous 24 Hours

Scroll right to see more
 ConditionsComfort  
Time TempWeatherWind HumidityBarometerVisibility
8:00 PM
Sat, Jun 25
87 °FPartly sunny.1 mph48%29.81 "Hg19 mi
6:00 PMN/APassing clouds.N/AN/AN/A2 mi
5:00 PM93 °FPartly sunny.1 mph40%29.81 "Hg19 mi
4:00 PM94 °FPartly sunny.1 mph37%29.82 "Hg16 mi
3:00 PM93 °FPartly sunny.2 mph40%29.83 "Hg16 mi
2:00 PM93 °FPartly sunny.1 mph39%29.84 "Hg16 mi
1:00 PMN/APassing clouds.N/AN/AN/A2 mi
12:00 PM92 °FScattered clouds.1 mph38%29.85 "Hg12 mi
11:00 AM90 °FPartly sunny.1 mph44%29.86 "Hg12 mi
10:00 AM88 °FPassing clouds.1 mph47%29.86 "Hg11 mi
9:00 AM87 °FPassing clouds.1 mph47%29.85 "Hg9 mi
8:00 AMN/APassing clouds.N/AN/AN/A6 mi
7:00 AM82 °FPassing clouds.1 mph54%29.84 "Hg16 mi
6:00 AM80 °FPassing clouds.1 mph56%29.85 "Hg12 mi
5:00 AM81 °FPassing clouds.2 mph56%29.85 "Hg12 mi
2:00 AM82 °FPassing clouds.1 mph58%29.87 "Hg12 mi
11:00 PM
Fri, Jun 24
84 °FPassing clouds.No wind57%29.89 "Hg12 mi
10:00 PM85 °FPassing clouds.1 mph54%29.89 "Hg12 mi
9:00 PM86 °FPassing clouds.No wind50%29.88 "Hg12 mi
Weather by CustomWeather, © 2016

See weather overviewHow to use our weather pages